| time (UTC) | temp F | wind direction | speed MPH | gust MPH | rain 1hr in | rain 24hr in | rain mn in | humidity % | barometer mb |
| 20260506062039 | 60 | 333 | 0.0 | 3.0 | 0.00 | 0.12 | 0.00 | 82 | 1008.3 |
| 20260506061554 | 60 | 5 | 0.0 | 4.0 | 0.00 | 0.12 | 0.00 | 84 | 1008.2 |
| 20260506061039 | 59 | 74 | 2.0 | 4.0 | 0.00 | 0.12 | 0.00 | 84 | 1008.3 |
| 20260506060540 | 58 | 72 | 2.0 | 5.0 | 0.00 | 0.12 | 0.00 | 84 | 1008.4 |
| 20260506051039 | 56 | 0 | 0.0 | 0.0 | 0.00 | 0.12 | 0.00 | 92 | 1008.4 |
| 20260506050539 | 56 | 0 | 0.0 | 0.0 | 0.00 | 0.12 | 0.00 | 92 | 1008.4 |
| 20260506045041 | 55 | 0 | 0.0 | 0.0 | 0.00 | 0.12 | 0.00 | 93 | 1008.3 |
| 20260506044552 | 54 | 0 | 0.0 | 0.0 | 0.00 | 0.12 | 0.00 | 93 | 1008.5 |
| 20260506044041 | 54 | 0 | 0.0 | 0.0 | 0.00 | 0.12 | 0.00 | 93 | 1008.7 |
| 20260506043540 | 54 | 0 | 0.0 | 0.0 | 0.00 | 0.12 | 0.00 | 93 | 1008.7 |
| 20260506043049 | 53 | 0 | 0.0 | 0.0 | 0.00 | 0.12 | 0.00 | 92 | 1008.7 |
| 20260506042540 | 53 | 0 | 0.0 | 0.0 | 0.00 | 0.12 | 0.00 | 92 | 1008.8 |
| 20260506042040 | 53 | 0 | 0.0 | 0.0 | 0.00 | 0.12 | 0.00 | 92 | 1008.8 |
| 20260506041602 | 53 | 0 | 0.0 | 0.0 | 0.00 | 0.12 | 0.00 | 92 | 1008.9 |
| 20260506041039 | 53 | 0 | 0.0 | 0.0 | 0.00 | 0.12 | 0.00 | 92 | 1008.8 |
| 20260506040539 | 53 | 0 | 0.0 | 0.0 | 0.00 | 0.12 | 0.00 | 92 | 1008.8 |
| 20260506040054 | 53 | 0 | 0.0 | 0.0 | 0.00 | 0.12 | 0.00 | 91 | 1008.5 |
| 20260506035539 | 53 | 0 | 0.0 | 1.0 | 0.00 | 0.12 | 0.00 | 91 | 1008.7 |
| 20260506035039 | 53 | 0 | 0.0 | 2.0 | 0.00 | 0.12 | 0.00 | 91 | 1008.8 |
| 20260506034556 | 53 | 0 | 0.0 | 2.0 | 0.00 | 0.12 | 0.00 | 91 | 1008.9 |
| 20260506034041 | 53 | 301 | 0.0 | 2.0 | 0.00 | 0.12 | 0.00 | 91 | 1008.9 |
| 20260506033539 | 53 | 0 | 0.0 | 0.0 | 0.00 | 0.12 | 0.00 | 91 | 1008.7 |
| 20260506033051 | 53 | 0 | 0.0 | 1.0 | 0.00 | 0.12 | 0.00 | 91 | 1008.7 |
| 20260506032541 | 53 | 0 | 0.0 | 1.0 | 0.00 | 0.12 | 0.00 | 91 | 1008.6 |
| 20260506032041 | 53 | 0 | 0.0 | 2.0 | 0.00 | 0.12 | 0.00 | 90 | 1008.3 |
| 20260506031553 | 53 | 0 | 0.0 | 2.0 | 0.00 | 0.12 | 0.00 | 90 | 1008.3 |
| 20260506031040 | 53 | 329 | 0.0 | 2.0 | 0.00 | 0.12 | 0.00 | 91 | 1008.3 |
| 20260506030542 | 53 | 0 | 0.0 | 2.0 | 0.00 | 0.12 | 0.00 | 90 | 1008.5 |
| 20260506030049 | 54 | 0 | 0.0 | 2.0 | 0.00 | 0.12 | 0.00 | 90 | 1008.4 |
| 20260506025539 | 54 | 0 | 0.0 | 1.0 | 0.00 | 0.12 | 0.00 | 90 | 1008.4 |
| 20260506025039 | 54 | 0 | 0.0 | 1.0 | 0.00 | 0.12 | 0.00 | 90 | 1008.4 |
| 20260506024552 | 54 | 0 | 0.0 | 0.0 | 0.00 | 0.12 | 0.00 | 90 | 1008.5 |
| 20260506024040 | 54 | 0 | 0.0 | 0.0 | 0.00 | 0.12 | 0.00 | 90 | 1008.6 |
| 20260506023540 | 54 | 0 | 0.0 | 0.0 | 0.00 | 0.12 | 0.00 | 90 | 1008.6 |
| 20260506023102 | 55 | 0 | 0.0 | 0.0 | 0.00 | 0.12 | 0.00 | 90 | 1008.6 |
| 20260506022539 | 55 | 0 | 0.0 | 0.0 | 0.00 | 0.12 | 0.00 | 90 | 1008.6 |
| 20260506022039 | 55 | 0 | 0.0 | 0.0 | 0.00 | 0.12 | 0.00 | 90 | 1008.6 |
| 20260506021609 | 55 | 0 | 0.0 | 0.0 | 0.00 | 0.12 | 0.00 | 90 | 1008.6 |
| 20260506021044 | 55 | 0 | 0.0 | 2.0 | 0.00 | 0.12 | 0.00 | 90 | 1008.4 |
| 20260506020539 | 55 | 0 | 0.0 | 2.0 | 0.00 | 0.12 | 0.00 | 90 | 1008.5 |
| 20260506020050 | 55 | 0 | 0.0 | 1.0 | 0.00 | 0.12 | 0.00 | 89 | 1008.4 |
| 20260506015541 | 55 | 0 | 0.0 | 1.0 | 0.00 | 0.12 | 0.00 | 90 | 1008.5 |
| 20260506015044 | 55 | 0 | 0.0 | 0.0 | 0.00 | 0.12 | 0.00 | 89 | 1008.5 |
| 20260506014553 | 55 | 0 | 0.0 | 0.0 | 0.00 | 0.12 | 0.00 | 89 | 1008.4 |
| 20260506014042 | 56 | 0 | 0.0 | 1.0 | 0.00 | 0.12 | 0.00 | 89 | 1008.5 |
| 20260506013541 | 56 | 0 | 0.0 | 1.0 | 0.00 | 0.12 | 0.00 | 89 | 1008.6 |
| 20260506013059 | 56 | 0 | 0.0 | 1.0 | 0.00 | 0.12 | 0.00 | 89 | 1008.6 |
| 20260506012539 | 56 | 0 | 0.0 | 2.0 | 0.00 | 0.12 | 0.00 | 89 | 1008.8 |
| 20260506012040 | 56 | 0 | 0.0 | 3.0 | 0.00 | 0.12 | 0.00 | 89 | 1008.8 |
| 20260506011606 | 56 | 206 | 0.0 | 3.0 | 0.00 | 0.12 | 0.00 | 89 | 1008.9 |
| 20260506011039 | 56 | 246 | 0.0 | 7.0 | 0.00 | 0.12 | 0.00 | 89 | 1008.8 |
| 20260506010539 | 56 | 0 | 1.0 | 7.0 | 0.00 | 0.12 | 0.00 | 89 | 1008.8 |
| 20260506010055 | 56 | 178 | 0.0 | 5.0 | 0.00 | 0.12 | 0.00 | 89 | 1008.8 |
| 20260506005543 | 56 | 207 | 1.0 | 5.0 | 0.00 | 0.12 | 0.00 | 89 | 1008.8 |
| 20260506005038 | 56 | 0 | 0.0 | 3.0 | 0.00 | 0.12 | 0.00 | 89 | 1008.8 |
| 20260506004554 | 56 | 161 | 0.0 | 3.0 | 0.00 | 0.12 | 0.00 | 89 | 1008.7 |
| 20260506004039 | 56 | 208 | 0.0 | 3.0 | 0.00 | 0.12 | 0.00 | 89 | 1008.6 |
| 20260506003540 | 56 | 267 | 0.0 | 3.0 | 0.00 | 0.12 | 0.00 | 89 | 1008.6 |
| 20260506003049 | 56 | 208 | 0.0 | 1.0 | 0.00 | 0.12 | 0.00 | 89 | 1008.6 |
| 20260506002539 | 57 | 0 | 0.0 | 2.0 | 0.00 | 0.12 | 0.00 | 89 | 1008.6 |
| 20260506002039 | 57 | 0 | 0.0 | 3.0 | 0.00 | 0.12 | 0.00 | 88 | 1008.5 |
| 20260506001557 | 57 | 178 | 0.0 | 4.0 | 0.00 | 0.12 | 0.00 | 89 | 1008.5 |
| 20260506001037 | 57 | 0 | 0.0 | 4.0 | 0.00 | 0.12 | 0.00 | 88 | 1008.4 |
| 20260506000542 | 57 | 0 | 0.0 | 3.0 | 0.00 | 0.12 | 0.00 | 88 | 1008.5 |
| 20260506000057 | 57 | 0 | 0.0 | 3.0 | 0.00 | 0.12 | 0.00 | 88 | 1008.5 |
| 20260505235539 | 57 | 192 | 0.0 | 2.0 | 0.00 | 0.12 | 0.00 | 88 | 1008.4 |
| 20260505235039 | 57 | 0 | 0.0 | 2.0 | 0.00 | 0.12 | 0.00 | 88 | 1008.4 |
| 20260505234555 | 58 | 0 | 0.0 | 2.0 | 0.00 | 0.12 | 0.00 | 88 | 1008.3 |
| 20260505234039 | 58 | 215 | 0.0 | 3.0 | 0.00 | 0.12 | 0.00 | 88 | 1008.4 |
| 20260505233540 | 58 | 0 | 0.0 | 4.0 | 0.00 | 0.12 | 0.00 | 88 | 1008.3 |
| 20260505233053 | 58 | 215 | 1.0 | 4.0 | 0.00 | 0.12 | 0.00 | 88 | 1008.3 |
| 20260505232539 | 58 | 0 | 0.0 | 4.0 | 0.00 | 0.12 | 0.00 | 88 | 1008.3 |
| 20260505232043 | 58 | 0 | 0.0 | 4.0 | 0.00 | 0.12 | 0.00 | 88 | 1008.3 |
| 20260505231608 | 58 | 0 | 0.0 | 4.0 | 0.00 | 0.12 | 0.00 | 88 | 1008.3 |
| 20260505231039 | 58 | 207 | 0.0 | 5.0 | 0.00 | 0.12 | 0.00 | 88 | 1008.1 |
| 20260505230539 | 58 | 271 | 1.0 | 5.0 | 0.00 | 0.12 | 0.00 | 88 | 1008.2 |
| 20260505230050 | 58 | 0 | 0.0 | 2.0 | 0.00 | 0.12 | 0.00 | 89 | 1008.1 |
| 20260505225539 | 57 | 317 | 0.0 | 2.0 | 0.00 | 0.12 | 0.00 | 89 | 1008.1 |
| 20260505225039 | 57 | 0 | 0.0 | 1.0 | 0.00 | 0.12 | 0.00 | 89 | 1008.1 |
| 20260505224555 | 57 | 0 | 0.0 | 2.0 | 0.00 | 0.12 | 0.00 | 88 | 1008.1 |
| 20260505224040 | 57 | 331 | 0.0 | 2.0 | 0.00 | 0.12 | 0.00 | 88 | 1007.9 |
| 20260505223537 | 57 | 0 | 0.0 | 4.0 | 0.00 | 0.12 | 0.00 | 88 | 1007.9 |
| 20260505223053 | 57 | 331 | 0.0 | 4.0 | 0.00 | 0.12 | 0.00 | 88 | 1007.8 |
| 20260505222542 | 57 | 304 | 0.0 | 4.0 | 0.00 | 0.12 | 0.00 | 88 | 1007.9 |
| 20260505222038 | 57 | 267 | 0.0 | 5.0 | 0.00 | 0.12 | 0.00 | 88 | 1007.8 |
| 20260505221549 | 58 | 0 | 0.0 | 6.0 | 0.00 | 0.12 | 0.00 | 88 | 1007.7 |
| 20260505221038 | 58 | 179 | 1.0 | 6.0 | 0.00 | 0.12 | 0.00 | 88 | 1007.7 |
| 20260505220537 | 58 | 306 | 0.0 | 4.0 | 0.00 | 0.12 | 0.00 | 88 | 1007.6 |
| 20260505220059 | 58 | 0 | 0.0 | 2.0 | 0.00 | 0.12 | 0.00 | 88 | 1007.6 |
| 20260505215537 | 58 | 0 | 0.0 | 4.0 | 0.00 | 0.12 | 0.12 | 88 | 1007.6 |
| 20260505215037 | 58 | 0 | 0.0 | 4.0 | 0.00 | 0.12 | 0.12 | 88 | 1007.4 |
| 20260505214556 | 58 | 0 | 1.0 | 4.0 | 0.00 | 0.12 | 0.12 | 88 | 1007.2 |
| 20260505214038 | 58 | 215 | 1.0 | 3.0 | 0.00 | 0.12 | 0.12 | 88 | 1007.1 |
| 20260505213538 | 58 | 229 | 0.0 | 4.0 | 0.00 | 0.12 | 0.12 | 88 | 1006.9 |
| 20260505213048 | 58 | 224 | 0.0 | 4.0 | 0.00 | 0.12 | 0.12 | 88 | 1006.9 |
| 20260505212538 | 58 | 246 | 0.0 | 3.0 | 0.00 | 0.12 | 0.12 | 88 | 1006.8 |
| 20260505212038 | 58 | 0 | 0.0 | 0.0 | 0.00 | 0.12 | 0.12 | 88 | 1006.8 |
| 20260505211549 | 58 | 0 | 0.0 | 0.0 | 0.00 | 0.12 | 0.12 | 88 | 1006.7 |
| 20260505211038 | 58 | 0 | 0.0 | 0.0 | 0.00 | 0.12 | 0.12 | 88 | 1006.6 |
| 20260505210537 | 59 | 0 | 0.0 | 0.0 | 0.00 | 0.12 | 0.12 | 88 | 1006.6 |
| 20260505210051 | 59 | 0 | 0.0 | 0.0 | 0.00 | 0.12 | 0.12 | 88 | 1006.6 |
| 20260505205538 | 59 | 0 | 0.0 | 0.0 | 0.00 | 0.12 | 0.12 | 88 | 1006.5 |
| 20260505205038 | 59 | 0 | 0.0 | 0.0 | 0.00 | 0.12 | 0.12 | 87 | 1006.5 |
| 20260505204553 | 59 | 0 | 0.0 | 0.0 | 0.00 | 0.12 | 0.12 | 87 | 1006.4 |
| 20260505204037 | 59 | 0 | 0.0 | 0.0 | 0.00 | 0.12 | 0.12 | 87 | 1006.4 |
| 20260505203537 | 59 | 0 | 0.0 | 1.0 | 0.00 | 0.12 | 0.12 | 86 | 1006.4 |
| 20260505203110 | 59 | 0 | 0.0 | 1.0 | 0.00 | 0.12 | 0.12 | 86 | 1006.2 |
| 20260505202537 | 60 | 0 | 0.0 | 3.0 | 0.00 | 0.12 | 0.12 | 85 | 1006.2 |
| 20260505202037 | 60 | 0 | 0.0 | 3.0 | 0.01 | 0.12 | 0.12 | 85 | 1006.1 |
| 20260505201554 | 60 | 0 | 0.0 | 3.0 | 0.02 | 0.12 | 0.12 | 84 | 1006.2 |
| 20260505201038 | 60 | 0 | 0.0 | 3.0 | 0.03 | 0.12 | 0.12 | 84 | 1006.2 |
| 20260505200538 | 60 | 155 | 0.0 | 4.0 | 0.03 | 0.12 | 0.12 | 82 | 1006.0 |
| 20260505200053 | 60 | 0 | 1.0 | 8.0 | 0.03 | 0.12 | 0.12 | 82 | 1005.8 |
| 20260505195539 | 60 | 231 | 1.0 | 8.0 | 0.03 | 0.12 | 0.12 | 83 | 1005.5 |
| 20260505195037 | 60 | 291 | 1.0 | 12.0 | 0.04 | 0.12 | 0.12 | 83 | 1005.4 |
| 20260505194548 | 60 | 5 | 3.0 | 12.0 | 0.04 | 0.11 | 0.11 | 83 | 1005.3 |
| 20260505194040 | 60 | 310 | 1.0 | 9.0 | 0.04 | 0.11 | 0.11 | 83 | 1005.5 |
| 20260505193540 | 60 | 298 | 2.0 | 12.0 | 0.05 | 0.11 | 0.11 | 83 | 1005.6 |
| 20260505193052 | 60 | 352 | 4.0 | 12.0 | 0.07 | 0.11 | 0.11 | 82 | 1005.4 |
| 20260505192540 | 60 | 321 | 4.0 | 12.0 | 0.07 | 0.11 | 0.11 | 82 | 1005.4 |
| 20260505192042 | 60 | 319 | 5.0 | 12.0 | 0.08 | 0.11 | 0.11 | 81 | 1005.6 |
| 20260505191600 | 61 | 283 | 3.0 | 14.0 | 0.10 | 0.10 | 0.10 | 80 | 1005.9 |
| 20260505191038 | 61 | 209 | 3.0 | 14.0 | 0.09 | 0.09 | 0.09 | 80 | 1005.9 |
| 20260505190539 | 61 | 267 | 3.0 | 14.0 | 0.09 | 0.09 | 0.09 | 79 | 1005.9 |
| 20260505190048 | 61 | 254 | 4.0 | 13.0 | 0.09 | 0.09 | 0.09 | 80 | 1005.8 |
| 20260505185540 | 61 | 324 | 2.0 | 11.0 | 0.08 | 0.08 | 0.08 | 80 | 1005.8 |
| 20260505185040 | 61 | 202 | 3.0 | 11.0 | 0.07 | 0.07 | 0.07 | 79 | 1005.6 |
| 20260505184548 | 61 | 344 | 3.0 | 12.0 | 0.07 | 0.07 | 0.07 | 78 | 1005.5 |
| 20260505184040 | 62 | 223 | 5.0 | 12.0 | 0.07 | 0.07 | 0.07 | 76 | 1005.4 |
| 20260505183542 | 62 | 191 | 1.0 | 12.0 | 0.06 | 0.06 | 0.06 | 77 | 1005.1 |
| 20260505183053 | 63 | 229 | 3.0 | 12.0 | 0.04 | 0.04 | 0.04 | 76 | 1005.1 |
| 20260505182538 | 63 | 202 | 4.0 | 16.0 | 0.03 | 0.03 | 0.03 | 73 | 1004.8 |
| 20260505182039 | 65 | 194 | 4.0 | 19.0 | 0.02 | 0.02 | 0.02 | 68 | 1004.7 |
| 20260505181556 | 67 | 277 | 4.0 | 26.0 | 0.00 | 0.00 | 0.00 | 61 | 1004.6 |
| 20260505181040 | 68 | 214 | 6.0 | 26.0 | 0.00 | 0.00 | 0.00 | 57 | 1004.6 |
| 20260505180540 | 70 | 276 | 5.0 | 26.0 | 0.00 | 0.00 | 0.00 | 52 | 1004.4 |
| 20260505180100 | 72 | 214 | 4.0 | 15.0 | 0.00 | 0.00 | 0.00 | 48 | 1003.9 |
| 20260505175539 | 74 | 224 | 0.0 | 8.0 | 0.00 | 0.00 | 0.00 | 46 | 1003.6 |
| 20260505175039 | 74 | 0 | 0.0 | 4.0 | 0.00 | 0.00 | 0.00 | 45 | 1003.1 |
| 20260505174547 | 74 | 321 | 1.0 | 4.0 | 0.00 | 0.00 | 0.00 | 44 | 1002.9 |
| 20260505174039 | 74 | 315 | 1.0 | 3.0 | 0.00 | 0.00 | 0.00 | 43 | 1002.8 |
| 20260505173539 | 75 | 65 | 0.0 | 2.0 | 0.00 | 0.00 | 0.00 | 41 | 1002.8 |
| 20260505173047 | 75 | 0 | 0.0 | 0.0 | 0.00 | 0.00 | 0.00 | 41 | 1002.8 |
| 20260505172539 | 76 | 0 | 0.0 | 0.0 | 0.00 | 0.00 | 0.00 | 40 | 1002.7 |
| 20260505172039 | 76 | 0 | 0.0 | 2.0 | 0.00 | 0.00 | 0.00 | 40 | 1002.7 |
| 20260505171554 | 76 | 0 | 0.0 | 2.0 | 0.00 | 0.00 | 0.00 | 38 | 1002.7 |
| 20260505171039 | 77 | 0 | 0.0 | 3.0 | 0.00 | 0.00 | 0.00 | 39 | 1002.7 |
| 20260505170539 | 77 | 0 | 0.0 | 3.0 | 0.00 | 0.00 | 0.00 | 37 | 1002.7 |
| 20260505170108 | 77 | 0 | 0.0 | 3.0 | 0.00 | 0.00 | 0.00 | 37 | 1002.8 |
| 20260505165539 | 77 | 53 | 0.0 | 1.0 | 0.00 | 0.00 | 0.00 | 36 | 1002.7 |
| 20260505165042 | 77 | 0 | 0.0 | 3.0 | 0.00 | 0.00 | 0.00 | 36 | 1002.8 |
| 20260505164553 | 78 | 0 | 0.0 | 3.0 | 0.00 | 0.00 | 0.00 | 36 | 1002.8 |
| 20260505164040 | 78 | 53 | 0.0 | 4.0 | 0.00 | 0.00 | 0.00 | 35 | 1002.8 |
| 20260505163539 | 78 | 0 | 0.0 | 5.0 | 0.00 | 0.00 | 0.00 | 36 | 1002.8 |
| 20260505163049 | 78 | 95 | 0.0 | 5.0 | 0.00 | 0.00 | 0.00 | 35 | 1002.9 |
| 20260505162538 | 78 | 64 | 1.0 | 5.0 | 0.00 | 0.00 | 0.00 | 34 | 1002.8 |
| 20260505162037 | 78 | 0 | 0.0 | 6.0 | 0.00 | 0.00 | 0.00 | 34 | 1002.9 |
| 20260505161556 | 78 | 224 | 1.0 | 6.0 | 0.00 | 0.00 | 0.00 | 34 | 1002.9 |
| 20260505161037 | 78 | 0 | 0.0 | 5.0 | 0.00 | 0.00 | 0.00 | 34 | 1003.0 |
| 20260505160537 | 79 | 74 | 1.0 | 5.0 | 0.00 | 0.00 | 0.00 | 34 | 1003.1 |
| 20260505153052 | 80 | 76 | 2.0 | 10.0 | 0.00 | 0.00 | 0.00 | 32 | 1003.2 |
| 20260505152537 | 80 | 102 | 2.0 | 7.0 | 0.00 | 0.00 | 0.00 | 32 | 1003.2 |
| 20260505152039 | 81 | 0 | 1.0 | 4.0 | 0.00 | 0.00 | 0.00 | 31 | 1003.3 |
| 20260505151602 | 81 | 352 | 0.0 | 3.0 | 0.00 | 0.00 | 0.00 | 32 | 1003.4 |
| 20260505151037 | 81 | 244 | 1.0 | 3.0 | 0.00 | 0.00 | 0.00 | 31 | 1003.4 |
| 20260505150542 | 81 | 0 | 1.0 | 4.0 | 0.00 | 0.00 | 0.00 | 32 | 1003.5 |
| 20260505140537 | 82 | 165 | 0.0 | 5.0 | 0.00 | 0.00 | 0.00 | 29 | 1004.1 |
| 20260505125037 | 82 | 151 | 1.0 | 4.0 | 0.00 | 0.00 | 0.00 | 32 | 1004.9 |
| 20260505124557 | 81 | 313 | 1.0 | 4.0 | 0.00 | 0.00 | 0.00 | 34 | 1004.9 |
| 20260505124038 | 80 | 0 | 0.0 | 3.0 | 0.00 | 0.00 | 0.00 | 34 | 1005.1 |
| 20260505123538 | 80 | 0 | 1.0 | 5.0 | 0.00 | 0.00 | 0.00 | 32 | 1005.1 |
| 20260505123057 | 80 | 0 | 1.0 | 5.0 | 0.00 | 0.00 | 0.00 | 31 | 1005.2 |
| 20260505122544 | 80 | 227 | 3.0 | 5.0 | 0.00 | 0.00 | 0.00 | 30 | 1005.2 |
| 20260505122040 | 80 | 225 | 1.0 | 6.0 | 0.00 | 0.00 | 0.00 | 32 | 1005.4 |
| 20260505121612 | 80 | 229 | 1.0 | 6.0 | 0.00 | 0.00 | 0.00 | 32 | 1005.4 |
| 20260505121037 | 80 | 267 | 2.0 | 6.0 | 0.00 | 0.00 | 0.00 | 32 | 1005.4 |
| 20260505120537 | 80 | 185 | 1.0 | 6.0 | 0.00 | 0.00 | 0.00 | 32 | 1005.6 |
| 20260505120056 | 80 | 309 | 0.0 | 7.0 | 0.00 | 0.00 | 0.00 | 34 | 1005.5 |
| 20260505115546 | 80 | 265 | 1.0 | 7.0 | 0.00 | 0.00 | 0.00 | 33 | 1005.6 |
| 20260505115040 | 79 | 211 | 2.0 | 6.0 | 0.00 | 0.00 | 0.00 | 29 | 1005.6 |
| 20260505114555 | 79 | 228 | 1.0 | 4.0 | 0.00 | 0.00 | 0.00 | 33 | 1005.7 |
| 20260505114041 | 78 | 310 | 1.0 | 8.0 | 0.00 | 0.00 | 0.00 | 33 | 1005.7 |
| 20260505113537 | 79 | 0 | 1.0 | 8.0 | 0.00 | 0.00 | 0.00 | 32 | 1005.8 |
| 20260505113049 | 79 | 338 | 1.0 | 8.0 | 0.00 | 0.00 | 0.00 | 38 | 1005.9 |
| 20260505112540 | 78 | 298 | 2.0 | 8.0 | 0.00 | 0.00 | 0.00 | 35 | 1006.0 |
| 20260505112041 | 78 | 292 | 2.0 | 8.0 | 0.00 | 0.00 | 0.00 | 35 | 1006.0 |
| 20260505111550 | 78 | 229 | 2.0 | 9.0 | 0.00 | 0.00 | 0.00 | 38 | 1006.2 |
| 20260505111040 | 77 | 327 | 2.0 | 9.0 | 0.00 | 0.00 | 0.00 | 41 | 1006.2 |
| 20260505110541 | 78 | 319 | 2.0 | 8.0 | 0.00 | 0.00 | 0.00 | 40 | 1006.4 |
| 20260505102040 | 76 | 325 | 1.0 | 6.0 | 0.00 | 0.00 | 0.00 | 45 | 1006.9 |
| 20260505101556 | 76 | 289 | 2.0 | 5.0 | 0.00 | 0.00 | 0.00 | 44 | 1006.9 |
| 20260505101040 | 75 | 0 | 0.0 | 7.0 | 0.00 | 0.00 | 0.00 | 47 | 1006.9 |
| 20260505100540 | 75 | 0 | 2.0 | 7.0 | 0.00 | 0.00 | 0.00 | 44 | 1006.9 |
| 20260505100058 | 75 | 232 | 1.0 | 5.0 | 0.00 | 0.00 | 0.00 | 44 | 1007.0 |
| 20260505095539 | 75 | 325 | 2.0 | 4.0 | 0.00 | 0.00 | 0.00 | 47 | 1007.0 |
| 20260505095039 | 75 | 195 | 1.0 | 4.0 | 0.00 | 0.00 | 0.00 | 46 | 1007.2 |
| 20260505094549 | 74 | 209 | 1.0 | 4.0 | 0.00 | 0.00 | 0.00 | 45 | 1007.2 |
| 20260505094039 | 74 | 168 | 1.0 | 5.0 | 0.00 | 0.00 | 0.00 | 46 | 1007.3 |
| 20260505093542 | 74 | 171 | 1.0 | 5.0 | 0.00 | 0.00 | 0.00 | 50 | 1007.4 |
| 20260505093048 | 74 | 182 | 1.0 | 4.0 | 0.00 | 0.00 | 0.00 | 50 | 1007.4 |
| 20260505092540 | 73 | 0 | 1.0 | 4.0 | 0.00 | 0.00 | 0.00 | 47 | 1007.5 |
| 20260505092040 | 73 | 311 | 1.0 | 4.0 | 0.00 | 0.00 | 0.00 | 47 | 1007.6 |
| 20260505091548 | 72 | 0 | 0.0 | 4.0 | 0.00 | 0.00 | 0.00 | 51 | 1007.6 |
| 20260505091039 | 72 | 164 | 1.0 | 4.0 | 0.00 | 0.00 | 0.00 | 50 | 1007.6 |
| 20260505090539 | 72 | 205 | 2.0 | 4.0 | 0.00 | 0.00 | 0.00 | 50 | 1007.8 |
| 20260505085538 | 71 | 0 | 2.0 | 5.0 | 0.00 | 0.00 | 0.00 | 53 | 1007.8 |
| 20260505085040 | 72 | 0 | 1.0 | 6.0 | 0.00 | 0.00 | 0.00 | 51 | 1007.9 |
| 20260505084611 | 72 | 245 | 2.0 | 7.0 | 0.00 | 0.00 | 0.00 | 51 | 1007.9 |
| 20260505084038 | 71 | 0 | 1.0 | 7.0 | 0.00 | 0.00 | 0.00 | 53 | 1007.9 |
| 20260505083537 | 71 | 200 | 2.0 | 7.0 | 0.00 | 0.00 | 0.00 | 52 | 1007.9 |
| 20260505083058 | 71 | 0 | 1.0 | 5.0 | 0.00 | 0.00 | 0.00 | 54 | 1007.9 |
| 20260505082537 | 71 | 162 | 0.0 | 5.0 | 0.00 | 0.00 | 0.00 | 52 | 1007.9 |
| 20260505082037 | 71 | 155 | 1.0 | 5.0 | 0.00 | 0.00 | 0.00 | 55 | 1008.0 |
| 20260505081549 | 70 | 187 | 1.0 | 4.0 | 0.00 | 0.00 | 0.00 | 55 | 1008.0 |
| 20260505081037 | 70 | 292 | 0.0 | 5.0 | 0.00 | 0.00 | 0.00 | 57 | 1008.0 |
| 20260505080536 | 70 | 0 | 0.0 | 5.0 | 0.00 | 0.00 | 0.00 | 56 | 1008.1 |
| 20260505080056 | 70 | 198 | 1.0 | 5.0 | 0.00 | 0.00 | 0.00 | 54 | 1008.1 |
| 20260505075539 | 70 | 281 | 0.0 | 3.0 | 0.00 | 0.00 | 0.00 | 55 | 1008.1 |
| 20260505075040 | 70 | 90 | 1.0 | 3.0 | 0.00 | 0.00 | 0.00 | 58 | 1008.1 |
| 20260505074549 | 69 | 0 | 1.0 | 3.0 | 0.00 | 0.00 | 0.00 | 59 | 1008.2 |
| 20260505074039 | 69 | 324 | 0.0 | 3.0 | 0.00 | 0.00 | 0.00 | 60 | 1008.2 |
| 20260505073540 | 68 | 213 | 0.0 | 3.0 | 0.00 | 0.00 | 0.00 | 60 | 1008.2 |
| 20260505073048 | 68 | 5 | 0.0 | 3.0 | 0.00 | 0.00 | 0.00 | 60 | 1008.1 |
| 20260505072542 | 67 | 0 | 1.0 | 3.0 | 0.00 | 0.00 | 0.00 | 61 | 1008.2 |
| 20260505072039 | 67 | 352 | 1.0 | 2.0 | 0.00 | 0.00 | 0.00 | 60 | 1008.3 |
| 20260505071547 | 67 | 29 | 0.0 | 2.0 | 0.00 | 0.00 | 0.00 | 62 | 1008.3 |
| 20260505071039 | 66 | 138 | 1.0 | 4.0 | 0.00 | 0.00 | 0.00 | 61 | 1008.3 |
| 20260505070538 | 66 | 0 | 0.0 | 4.0 | 0.00 | 0.00 | 0.00 | 62 | 1008.3 |
| 20260505070052 | 66 | 63 | 1.0 | 4.0 | 0.00 | 0.00 | 0.00 | 61 | 1008.4 |